Погода в Никольском

Россия / Вологодская область     59°29′26″N   42°31′27″E
темп.,
°C
ветер,
м/с
пор.,
м/с
влажн.,
%
обл.,
%
осадки,
мм/ч
давл.,
гПа
погр.,
м
12 апреля, пн
пн1200:00−2юз119625 0.0 103510
03:00−2юв119631 0.0 103610
06:00+1юв258786 0.0 103791
09:00+4ююв3882100 0.0 1037281
12:00+5ююв3986100 0.0 1037416
15:00+12ю477547 0.1 1036872
18:00+10ююв268833 0.0 1035128
21:00+7ююв31193100 0.0 1035296
13 апреля, вт
вт1300:00+5ююв41489100 0.0 1033421
03:00+5ююв41292100 0.0 1032455
06:00+5ююв41196100 0.0 1031451
09:00+7ю31093100 0.0 1029464
12:00+12ю4976100 0.0 1027580
15:00+15ю41169100 0.0 1026826
18:00+13ю41175100 0.0 1025487
21:00+11ю41384100 0.0 1025391
14 апреля, ср
ср1400:00+9ююз31283100 0.0 1024279
03:00+7ю2108766 0.0 1024177
06:00+7ю3108258 0.0 1024203
09:00+13ю496224 0.0 1023355
12:00+17ююз594986 0.0 1022857
15:00+18ююз5846100 0.0 10211486
18:00+14ю41056100 0.0 1020620
21:00+11ю31271100 0.0 1020286
15 апреля, чт
чт1500:00+9ююз31177100 0.0 1019249
03:00+7юз288582 0.0 1019169
06:00+7зюз228735 0.0 101936
09:00+11ссз237557 0.0 1020474
12:00+9с4480100 0.0 1021481
15:00+6ссв4785100 0.0 1022449
18:00+6св3790100 1.5 1022479
21:00+5св3890100 2.8 1023509
16 апреля, пт
пт1600:00+5св3985100 0.4 1023573
03:00+4ссв378798 0.5 1023426
06:00+2ссв39856 0.0 1024347
09:00+5ссв46645 0.0 1025723
12:00+8ссв45455 0.0 10251321
15:00+9с46385 0.0 10251676
18:00+8с48475 0.0 10261074
21:00+5ссв511635 0.0 1028750